Location: Krakow
(50.0830°N, 19.9170°E)
Time: 12:12:08
(UTC+02:00)

Tiros 1 - Pass Details

Date: 15 February 2023
Orbit: 627 x 662 km, 48.4° (Epoch: 26 March)

Event Time Altitude Azimuth Distance (km) Brightness Sun altitude
Rises 01:34:14 0° 280° (W) 2,915 - -47.5°
Reaches altitude 10° 01:36:57 10° 266° (W) 2,007 - -47.3°
Maximum altitude 01:40:30 22° 215° (SW) 1,376 - -46.9°
Drops below altitude 10° 01:44:04 10° 165° (SSE) 2,012 - -46.5°
Sets 01:46:47 0° 150° (SSE) 2,923 - -46.2°
